Location: Göttingen
(51.5413°N, 9.9158°E)
Time: 09:03:41
(UTC+02:00)

QB50P2 - Visible Passes

Search period start: 25 June 2022 00:00
Search period end: 05 July 2022 00:00
Orbit: 589 x 607 km, 97.9° (Epoch: 24 June)

Date Brightness Start Highest point End Pass type
(mag) Time Alt. Az. Time Alt. Az. Time Alt. Az.
25 Jun ? 02:38:33 10° NNE 02:42:44 57° E 02:45:47 18° S visible
25 Jun ? 04:14:58 10° NNW 04:18:03 20° WNW 04:21:08 10° WSW visible
26 Jun ? 02:49:00 10° NNE 02:53:14 73° ESE 02:56:22 18° S visible
27 Jun ? 01:25:51 10° ENE 01:27:26 12° E 01:29:00 10° ESE visible
27 Jun ? 02:59:29 10° NNE 03:03:43 90° NW 03:06:57 17° SSW visible
28 Jun ? 01:35:37 10° NE 01:38:03 15° E 01:40:28 10° ESE visible
28 Jun ? 03:09:58 10° N 03:14:12 72° WNW 03:17:32 16° SSW visible
29 Jun ? 01:45:40 10° NE 01:48:38 18° E 01:51:24 11° SE visible
29 Jun ? 03:20:30 10° N 03:24:39 57° WNW 03:28:06 14° SSW visible
30 Jun ? 01:55:50 10° NE 01:59:13 23° E 02:01:58 13° SE visible
30 Jun ? 03:31:02 10° N 03:35:06 46° WNW 03:38:41 13° SW visible
01 Jul ? 02:06:05 10° NE 02:09:46 28° E 02:12:32 15° SSE visible
01 Jul ? 03:41:36 10° N 03:45:30 37° WNW 03:49:15 11° SW visible
02 Jul ? 02:16:24 10° NNE 02:20:18 35° E 02:23:06 17° SSE visible
02 Jul ? 03:52:11 10° N 03:55:54 30° WNW 03:59:37 10° SW visible
03 Jul ? 02:26:44 10° NNE 02:30:49 43° E 02:33:40 18° SSE visible
03 Jul ? 04:02:48 10° N 04:06:17 25° WNW 04:09:45 10° WSW visible
04 Jul ? 02:37:08 10° NNE 02:41:19 55° E 02:44:13 19° S visible
04 Jul ? 04:13:28 10° NNW 04:16:39 21° WNW 04:19:50 10° WSW visible
